Home   Weather   Medicine Hat   Past weeks

Flag for Canada Past Weather in Medicine Hat, Alberta, Canada — Yesterday and Last 2 Weeks

Now
41 °F

Broken clouds.


Feels Like: 31 °F
Forecast: 34 / 42 °F
Wind: 23 mph from Southwest

Location: Medicine Hat

Current Time: Jan 17, 2017 at 10:23:15 am

Latest Report: Jan 17, 2017 at 10:00 am


Visibility: 30 mi

Pressure: 29.64 "Hg (27.33 "Hg at 661m altitude)

Humidity: 70%

Dew Point: 32 °F

Location of Medicine HatLocation

Past Weather in Medicine Hat — Graph

°F

Medicine Hat Temperature Yesterday

Maximum temperature yesterday: 37 °F (at 10:00 pm)
Minimum temperature yesterday: 12 °F (at 1:00 am)
Average temperature yesterday: 24 °F

High & Low Weather Summary for the Past Weeks

 TemperatureHumidityPressure
High41 °F (Jan 17, 4:00 am)100% (Jan 5, 8:00 pm)30.65 "Hg (Jan 5, 8:00 pm)
Low-24 °F (Jan 11, 12:42 am)50% (Jan 12, 2:00 pm)29.60 "Hg (Jan 17, 8:00 am)
Average5 °F77%30.21 "Hg
* Reported Jan 2 9:00 am — Jan 17 9:00 am, Medicine Hat, Weather by CustomWeather, © 2017

Note: Actual official high and low records may vary slightly from our data, if they occured in-between our weather recording intervals... More about our weather records

Advertising

Medicine Hat Weather History for the Previous 24 Hours

Scroll right to see more
 ConditionsComfort  
Time TempWeatherWind HumidityBarometerVisibility
9:00 am
Tue, Jan 17
41 °FPartly sunny.24 mph70%29.62 "Hg30 mi
8:00 am41 °FPartly cloudy.30 mph66%29.60 "Hg30 mi
7:00 am41 °FPassing clouds.23 mph66%29.61 "Hg15 mi
6:00 am39 °FMostly cloudy.25 mph70%29.62 "Hg15 mi
5:00 am41 °FClear.26 mph66%29.65 "Hg9 mi
4:00 am41 °FClear.28 mph61%29.65 "Hg9 mi
3:00 am39 °FClear.22 mph61%29.69 "Hg9 mi
2:00 am39 °FClear.25 mph56%29.68 "Hg9 mi
1:00 am39 °FClear.26 mph56%29.71 "Hg9 mi
12:00 am37 °FClear.20 mph60%29.74 "Hg9 mi
11:00 pm
Mon, Jan 16
37 °FClear.17 mph60%29.78 "Hg9 mi
10:00 pm37 °FClear.17 mph56%29.81 "Hg9 mi
9:00 pm36 °FClear.22 mph60%29.84 "Hg9 mi
8:00 pm34 °FPassing clouds.18 mph60%29.88 "Hg30 mi
7:00 pm32 °FPassing clouds.13 mph64%29.90 "Hg30 mi
6:00 pm34 °FPassing clouds.17 mph65%29.94 "Hg30 mi
5:00 pm34 °FPassing clouds.13 mph60%29.96 "Hg30 mi
4:00 pm34 °FHigh level clouds.15 mph60%29.97 "Hg30 mi
3:00 pm36 °FPartly sunny.13 mph56%29.99 "Hg30 mi
2:00 pm34 °FPartly sunny.13 mph60%30.02 "Hg30 mi
1:00 pm34 °FPartly sunny.16 mph56%30.06 "Hg30 mi
12:00 pm28 °FPartly sunny.13 mph64%30.09 "Hg30 mi
11:00 am25 °FPartly sunny.15 mph63%30.14 "Hg30 mi
10:00 am19 °FScattered clouds.12 mph73%30.16 "Hg30 mi
Weather by CustomWeather, © 2017

See weather overviewHow to use our weather pages